Location: Hopville
(44.8032°N, 123.1329°W)
Time: 04:52:52
(UTC+00:00)

Cosmos 2333 Rocket - Pass Details

Date: 24 January 2021
Orbit: 839 x 863 km, 70.8° (Epoch: 26 February)

Event Time Altitude Azimuth Distance (km) Brightness Sun altitude
Exits shadow 13:09:55 26° 351° (N) 1,597 3.5 -26.4°
Drops below altitude 10° 13:12:48 10° 13° (NNE) 2,474 4.7 -25.9°
Sets 13:15:27 0° 21° (NNE) 3,417 5.6 -25.5°
